Regional Weather Roundup
Issued by NWS Northern Indiana

Home | Current Version | Previous Version | Graphics & Text | Print | Product List | Glossary On
Versions: 1 2 3 4 5 6 7 8 9 10 11 12 13 14 15 16 17 18 19 20 21 22 23 24 25 26 27 28 29 30 31 32 33 34 35 36 37 38 39 40 41 42 43 44 45 46 47 48 49 50
427
ASUS43 KIWX 130000
RWRIWX

KIWX WEATHER ROUNDUP
NATIONAL WEATHER SERVICE NORTHERN INDIANA
700 PM EST FRI FEB 12 2016

NOTE: "FAIR" INDICATES FEW OR NO CLOUDS BELOW 12,000 FEET WITH NO
SIGNIFICANT WEATHER AND/OR OBSTRUCTIONS TO VISIBILITY.

* THESE STATIONS ARE NOT UNDER NWS QUALITY CONTROL. THEY ALSO MAY NOT
  REPORT WEATHER SUCH AS PRECIPITATION OR FOG.

INZ001>027-130100-
NORTHERN INDIANA

CITY           SKY/WX    TMP DP  RH WIND       PRES   REMARKS
GARY*          PTCLDY    21  -4  33 NW28      30.26R WCI   3
SOUTH BEND     LGT SNOW  16   7  67 NW22G33   30.19R WCI  -2
6HR MIN TEMP:  16; 6HR MAX TEMP:  20; 6HR PCP: TRACE;

ELKHART*       LGT SNOW  16  10  79 NW14G26   30.18R WCI   1
GOSHEN         LGT SNOW  16  11  80 NW22G31   30.16R VSB 1   WCI  -2
6HR MIN TEMP:  16; 6HR MAX TEMP:  21; 6HR PCP: TRACE;

MONTICELLO*    PTCLDY    19   4  52 NW16      30.22R WCI   5
6HR MIN TEMP:  19; 6HR MAX TEMP:  26;

ANGOLA*        PTCLDY    16   9  73 NW13      30.08R WCI   2
FORT WAYNE     FLURRIES  18  10  71 W16G22    30.14R WCI   3
6HR MIN TEMP:  18; 6HR MAX TEMP:  24; 6HR PCP:  0.01;

PERU/GRISSOM   MOCLDY    19   9  63 NW15G26   30.17R WCI   5

$$
INZ028>050-130100-
CENTRAL INDIANA

CITY           SKY/WX    TMP DP  RH WIND       PRES   REMARKS
LAFAYETTE      CLEAR     20   6  55 NW18G24   30.24R WCI   5
6HR MIN TEMP:  20; 6HR MAX TEMP:  26; 6HR PCP: TRACE;

KOKOMO*        CLOUDY    19  10  68 N18G26    30.18R WCI   4
6HR MIN TEMP:  19; 6HR MAX TEMP:  25;

MUNCIE*        FLURRIES  22  12  65 NW14      30.15R WCI   9
6HR MIN TEMP:  22; 6HR MAX TEMP:  25; 6HR PCP: TRACE;

INDIANAPOLIS   MOCLDY    23   9  55 W17       30.21R WCI   9
6HR MIN TEMP:  23; 6HR MAX TEMP:  27; 6HR PCP: TRACE;


$$
MIZ043>046-050>051-056>058-064>065-071>073-077>080-130100-
SOUTHWEST LOWER MICHIGAN

CITY           SKY/WX    TMP DP  RH WIND       PRES   REMARKS
BATTLE CREEK   PTCLDY    14   6  70 NW17      30.11R WCI  -3
6HR MIN TEMP:  14; 6HR MAX TEMP:  21; 6HR PCP: TRACE;

BENTON HARBOR  LGT SNOW  17   8  67 NW13G36   30.21R WCI   4
6HR MIN TEMP:  17; 6HR MAX TEMP:  22; 6HR PCP: TRACE;

COLDWATER*     LGT SNOW  15  12  86 NW15G28   30.10R VSB 3/4 WCI   0
6HR MIN TEMP:  15; 6HR MAX TEMP:  22;

HILLSDALE*     CLEAR     14   6  72 NW17G25   30.05R WCI  -3
6HR MIN TEMP:  14; 6HR MAX TEMP:  21;

HOLLAND        LGT SNOW  16   9  74 NW13G23   30.17R WCI   2
6HR MIN TEMP:  16; 6HR MAX TEMP:  20; 6HR PCP: TRACE;

GRAND RAPIDS   FLURRIES  15   7  70 NW15G25   30.13R WCI   0
6HR MIN TEMP:  15; 6HR MAX TEMP:  22; 6HR PCP: TRACE;

KALAMAZOO      LGT SNOW  15   9  76 NW14G23   30.13R WCI   0
6HR MIN TEMP:  15; 6HR MAX TEMP:  20; 6HR PCP: TRACE;

STURGIS*       LGT SNOW  15  11  83 NW7G17    30.12R WCI   5
6HR MIN TEMP:  15; 6HR MAX TEMP:  21;

THREE RIVERS*  MOCLDY    16  11  79 NW12      30.15R WCI   3
6HR MIN TEMP:  16; 6HR MAX TEMP:  22;


$$
OHZ001>008-015>018-024>025-130100-
NORTHWEST OHIO

CITY           SKY/WX    TMP DP  RH WIND       PRES   REMARKS
DEFIANCE       CLEAR     19   9  65 NW16G29   30.12R WCI   4
6HR MIN TEMP:  18; 6HR MAX TEMP:  25; 6HR PCP: TRACE;

FINDLAY        PTCLDY    19  10  68 W17       30.07R WCI   4
6HR MIN TEMP:  19; 6HR MAX TEMP:  25; 6HR PCP: TRACE;

TOLEDO EXPRESS MOCLDY    17   9  70 NW12      30.08R WCI   4
6HR MIN TEMP:  17; 6HR MAX TEMP:  24; 6HR PCP: TRACE;

TOLEDO METCALF PTCLDY    19   8  62 NW17G26   30.08R WCI   4
                                      6HR PCP: TRACE;

LIMA           CLEAR     18  10  71 W15       30.09R WCI   4
6HR MIN TEMP:  18; 6HR MAX TEMP:  24; 6HR PCP: TRACE;


$$
AND FOR LAKE MICHIGAN COASTAL AND OPEN LAKE BUOY OBSERVATIONS

STATION/POSITION TEMP    WIND        PRES    VSBY  WAVE
                 AIR SEA DIR/SP/G                  HT/PER
                 (F)     (DEG/KT/KT) (MB)    (MI)  (FT/S)
CALUMET HARBOR    20                 1022.8R
MICHIGAN CITY     20     280/ 23/ 31   N/A
BURNS HARBOR      21     300/ 20/ 22 1023.0R
SAINT JOSEPH      20     310/ 28/ 34 1022.4R

$$
&&




USA.gov is the U.S. government's official web portal to all federal, state and local government web resources and services.